www.pogodaiklimat.ru

Погода и климат >> Архив погоды >> Австралия >> Южная Австралия >> Порт Огаста


ПОГОДА в Порт Огаста

  • Прогноз погоды в Порт Огаста
  • Монитор погоды в Порт Огаста

АРХИВ ПОГОДЫ в Порт Огаста

Время (UTC), дата Ветер
(напр.,м/с)
 
Видим.   Явления Облачность Т
(С)
Тd
(С)
f
(%)
Тe
(С)
Тes
(С)
Комфортность P
(гПа)
Po
(гПа)
Тmin
(С)
Tmax
(С)
R
(мм)
R24
(мм)
S
(см)
17 16.01 ЮВ 5 н/о н/о +28.6 +16.2 47 +32 +32 душно 1005.8 1004.1
16 16.01 В 5 н/о н/о +27.6 +18.6 58 +33 +33 очень
душно
1005.6 1003.9
18 16.01 ЮВ 10 н/о н/о +27.1 +16.4 52 +31 +31 душно 1005.7 1004.0
19 16.01 ЮВ 8 н/о н/о +26.7 +16.9 55 +30 +30 душно 1005.8 1004.1
20 16.01 ЮВ 7 н/о н/о +28.9 +13.9 40 +31 +31 жарко 1005.8 1004.1
21 16.01 ЮВ 5 н/о н/о +29.7 +12.6 35 +31 +31 жарко 1006.1 1004.4
23 16.01 ЮВ 3 н/о н/о +35.8 +11.4 23 +35 +35 очень
жарко
1005.9 1004.2
22 16.01 ЮВ 5 н/о н/о +32.9 +12.0 28 +33 +33 жарко 1006.3 1004.6
00 17.01 З 3 н/о н/о +39.1 +10.4 18 +38 +38 очень
жарко
1005.5 1003.8
01 17.01 СЗ 5 н/о н/о +41.5 +10.6 16 +40 +40 очень
жарко
1005.5 1003.8
02 17.01 СЗ 6 н/о н/о +42.8 +8.5 13 +41 +41 опасность
перегрева
1005.0 1003.3
03 17.01 СЗ 5 н/о н/о +44.4 +7.3 11 +42 +42 опасность
перегрева
1004.4 1002.7
05 17.01 З 8 н/о н/о +45.1 +4.9 9 +42 +42 опасность
перегрева
1002.9 1001.2
04 17.01 З 5 н/о н/о +43.0 +6.2 11 +40 +40 очень
жарко
1003.6 1001.9
06 17.01 З 9 н/о н/о +43.7 +3.9 9 +41 +41 опасность
перегрева
1002.4 1000.7
07 17.01 Ю 12 н/о н/о +38.6 +10.9 19 +38 +38 очень
жарко
1003.4 1001.7
08 17.01 Ю 15 н/о н/о +34.3 +12.6 27 +35 +35 очень
жарко
1004.1 1002.4
09 17.01 Ю 13 н/о н/о +33.1 +12.1 28 +33 +33 жарко 1004.3 1002.6
11 17.01 ЮВ 12 н/о н/о +31.1 +14.3 36 +33 +33 душно 1005.4 1003.7
10 17.01 Ю 12 н/о н/о +32.8 +12.4 29 +33 +33 жарко 1004.8 1003.1
12 17.01 ЮВ 12 н/о н/о +31.0 +13.3 34 +32 +32 жарко 1005.2 1003.5
13 17.01 ЮВ 11 н/о н/о +30.8 +13.1 34 +32 +32 жарко 1005.2 1003.5
14 17.01 ЮВ 8 н/о н/о +30.9 +12.3 32 +32 +32 жарко 1005.1 1003.4
15 17.01 ЮВ 8 н/о н/о +31.1 +12.0 31 +32 +32 жарко 1004.9 1003.2
17 17.01 Ю 8 н/о н/о +29.6 +13.4 37 +31 +31 жарко 1004.5 1002.8
16 17.01 ЮВ 7 н/о н/о +29.7 +12.6 35 +31 +31 жарко 1004.4 1002.7
18 17.01 Ю 9 н/о н/о +28.7 +14.5 42 +31 +31 жарко 1005.3 1003.6
19 17.01 ЮВ 8 н/о н/о +25.9 +17.3 59 +30 +30 душно 1005.7 1004.0
20 17.01 ЮВ 9 н/о н/о +25.3 +17.7 63 +30 +30 душно 1006.7 1005.0
21 17.01 Ю 8 н/о н/о +27.0 +16.0 51 +30 +30 душно 1008.0 1006.3
23 17.01 Ю 10 н/о н/о +28.5 +16.1 47 +32 +32 душно 1008.7 1007.0
22 17.01 ЮВ 9 н/о н/о +27.4 +16.7 52 +31 +31 душно 1008.2 1006.5
00 18.01 Ю 8 н/о н/о +28.2 +17.7 53 +33 +33 очень
душно
1010.0 1008.3
01 18.01 ЮВ 9 н/о н/о +28.6 +17.5 51 +33 +33 очень
душно
1011.3 1009.6
02 18.01 ЮВ 11 н/о н/о +26.5 +18.6 62 +31 +31 душно 1012.3 1010.6
03 18.01 ЮВ 10 н/о н/о +25.7 +19.6 69 +31 +31 очень
душно
1012.3 1010.6
05 18.01 ЮВ 11 н/о н/о +25.8 +18.2 63 +30 +30 душно 1011.8 1010.1
04 18.01 ЮВ 10 н/о н/о +24.8 +19.2 71 +30 +30 душно 1012.2 1010.5
06 18.01 ЮВ 10 н/о н/о +26.7 +17.2 56 +31 +31 душно 1010.9 1009.2
07 18.01 Ю 8 н/о н/о +27.4 +16.4 51 +31 +31 душно 1011.3 1009.6
08 18.01 Ю 7 н/о н/о +28.3 +15.6 46 +31 +31 душно 1011.4 1009.7
09 18.01 Ю 9 н/о н/о +25.0 +16.7 60 +29 +29 душно 1012.4 1010.7
11 18.01 Ю 10 н/о н/о +23.0 +17.2 70 +28 +28 душно 1014.9 1013.2
10 18.01 Ю 10 н/о н/о +23.2 +17.2 69 +28 +28 душно 1014.3 1012.6
12 18.01 ЮВ 9 н/о н/о +23.1 +10.9 46 +25 +25 комфорт 1016.3 1014.6
13 18.01 Ю 7 н/о н/о +22.5 +10.9 48 +25 +25 комфорт 1017.0 1015.3
14 18.01 Ю 9 н/о н/о +21.7 +12.8 57 +24 +24 комфорт 1017.0 1015.3
15 18.01 Ю 10 н/о н/о +21.3 +14.0 63 +24 +24 комфорт 1016.9 1015.2
17 18.01 Ю 7 н/о н/о +20.5 +13.5 64 +22 +22 комфорт 1016.8 1015.1
16 18.01 Ю 7 н/о н/о +20.7 +14.1 66 +23 +23 комфорт 1016.9 1015.2
18 18.01 Ю 9 н/о н/о +20.4 +12.9 62 +22 +22 комфорт 1016.3 1014.6
19 18.01 Ю 8 н/о н/о +20.2 +13.9 67 +22 +22 комфорт 1016.5 1014.8
20 18.01 Ю 8 н/о н/о +20.0 +13.0 64 +21 +21 комфорт 1017.1 1015.4
21 18.01 Ю 7 н/о н/о +20.9 +13.8 64 +23 +23 комфорт 1018.4 1016.7
23 18.01 Ю 8 н/о н/о +22.9 +12.5 52 +26 +26 жарко 1019.5 1017.8
22 18.01 ЮВ 8 н/о н/о +22.2 +10.4 47 +24 +24 комфорт 1019.1 1017.4
00 19.01 Ю 7 н/о н/о +24.9 +10.8 41 +26 +26 жарко 1019.3 1017.6
01 19.01 ЮВ 7 н/о н/о +27.6 +9.9 33 +28 +28 жарко 1018.9 1017.2
02 19.01 Ю 8 н/о н/о +29.3 +8.9 28 +29 +29 жарко 1018.4 1016.7
03 19.01 ЮВ 10 н/о н/о +30.8 +9.1 26 +30 +30 жарко 1017.6 1015.9
05 19.01 Ю 10 н/о н/о +32.9 +7.7 21 +31 +31 жарко 1016.5 1014.8
04 19.01 ЮВ 10 н/о н/о +31.3 +8.9 25 +30 +30 жарко 1017.2 1015.5
06 19.01 Ю 10 н/о н/о +31.9 +8.2 23 +31 +31 жарко 1016.0 1014.3
07 19.01 Ю 10 н/о н/о +31.8 +8.7 24 +31 +31 жарко 1016.0 1014.3
08 19.01 Ю 8 н/о н/о +30.0 +8.4 26 +29 +29 жарко 1016.0 1014.3
09 19.01 Ю 6 н/о н/о +28.1 +9.4 31 +28 +28 жарко 1017.2 1015.5
11 19.01 Ю 11 н/о н/о +25.2 +12.4 45 +27 +27 жарко 1018.4 1016.7
10 19.01 Ю 6 н/о н/о +27.1 +9.9 34 +28 +28 жарко 1017.9 1016.2
12 19.01 Ю 10 н/о н/о +24.0 +15.5 59 +27 +27 жарко 1018.5 1016.8
13 19.01 Ю 9 н/о н/о +23.9 +11.3 45 +25 +25 комфорт 1019.7 1018.0
14 19.01 Ю 8 н/о н/о +22.5 +13.6 57 +26 +26 жарко 1019.2 1017.5
15 19.01 Ю 6 н/о н/о +22.4 +14.5 61 +26 +26 жарко 1018.7 1017.0
17 19.01 Ю 8 н/о н/о +21.6 +13.2 59 +24 +24 комфорт 1016.8 1015.1
16 19.01 Ю 7 н/о н/о +21.9 +14.5 63 +25 +25 комфорт 1018.1 1016.4
18 19.01 Ю 4 н/о н/о +21.7 +12.3 55 +24 +24 комфорт 1016.8 1015.1
19 19.01 Ю 4 н/о н/о +21.9 +11.6 52 +24 +24 комфорт 1017.0 1015.3
20 19.01 Ю 3 н/о н/о +22.3 +10.8 48 +24 +24 комфорт 1017.0 1015.3
21 19.01 Ю 3 н/о н/о +23.1 +10.2 44 +25 +25 комфорт 1017.6 1015.9
23 19.01 ЮВ 6 н/о н/о +25.3 +8.7 35 +26 +26 жарко 1018.1 1016.4
22 19.01 Ю 5 н/о н/о +24.3 +8.7 37 +25 +25 комфорт 1018.2 1016.5
00 20.01 ЮВ 6 н/о н/о +27.1 +8.0 30 +27 +27 жарко 1018.3 1016.6
01 20.01 ЮВ 6 н/о н/о +29.1 +7.1 25 +28 +28 жарко 1017.9 1016.2
02 20.01 ЮВ 5 н/о н/о +31.6 +6.6 21 +30 +30 жарко 1017.2 1015.5
03 20.01 ЮВ 5 н/о н/о +33.5 +5.1 17 +31 +31 жарко 1016.3 1014.6
05 20.01 ЮВ 5 н/о н/о +35.9 +2.1 12 +33 +33 жарко 1014.7 1013.0
04 20.01 ЮВ 5 н/о н/о +35.3 +3.8 14 +32 +32 жарко 1015.6 1013.9
06 20.01 ЮВ 7 н/о н/о +35.7 +6.0 16 +33 +33 жарко 1014.1 1012.4
07 20.01 ЮВ 8 н/о н/о +34.4 +6.7 18 +32 +32 жарко 1013.7 1012.0
08 20.01 ЮВ 9 н/о н/о +33.0 +10.4 25 +32 +32 жарко 1013.7 1012.0
09 20.01 ЮВ 7 н/о н/о +32.3 +7.9 22 +31 +31 жарко 1014.2 1012.5
11 20.01 ЮВ 6 н/о н/о +25.6 +17.5 61 +30 +30 душно 1015.8 1014.1
10 20.01 ЮВ 7 н/о н/о +27.3 +15.0 47 +30 +30 душно 1015.0 1013.3
12 20.01 ЮВ 7 н/о н/о +25.8 +14.9 51 +29 +29 душно 1015.5 1013.8
13 20.01 Ю 7 н/о н/о +26.9 +10.2 35 +27 +27 жарко 1015.4 1013.7
14 20.01 Ю 3 н/о н/о +26.0 +9.8 36 +27 +27 жарко 1015.3 1013.6
15 20.01 ЮВ 7 н/о н/о +26.2 +10.0 36 +27 +27 жарко 1014.4 1012.7
17 20.01 Ю 5 н/о н/о +24.3 +13.8 52 +27 +27 жарко 1013.6 1011.9
16 20.01 ЮВ 6 н/о н/о +25.2 +12.8 46 +27 +27 жарко 1014.0 1012.3
18 20.01 ЮВ 4 н/о н/о +24.7 +14.2 52 +27 +27 жарко 1013.0 1011.3
19 20.01 ЮВ 5 н/о н/о +23.7 +17.0 66 +27 +27 жарко 1013.1 1011.4
20 20.01 ЮВ 4 н/о н/о +23.3 +16.4 65 +28 +28 душно 1013.7 1012.0
21 20.01 ЮВ 5 н/о н/о +23.9 +16.7 64 +27 +27 жарко 1013.8 1012.1
23 20.01 ЮВ 5 н/о н/о +28.6 +15.2 44 +31 +31 жарко 1013.2 1011.5
22 20.01 ЮВ 6 н/о н/о +26.1 +15.2 51 +29 +29 жарко 1013.6 1011.9
00 21.01 В 3 н/о н/о +32.2 +13.9 33 +34 +34 душно 1013.1 1011.4
01 21.01 ЮВ 2 н/о н/о +32.3 +12.5 30 +33 +33 жарко 1013.2 1011.5
02 21.01 ЮВ 5 н/о н/о +33.1 +14.7 33 +35 +35 душно 1012.5 1010.8
03 21.01 ЮВ 6 н/о н/о +35.2 +13.4 27 +36 +36 очень
жарко
1011.7 1010.0
05 21.01 В 6 н/о н/о +37.7 +10.9 20 +37 +37 очень
жарко
1010.9 1009.2
04 21.01 ЮВ 5 н/о н/о +37.6 +5.6 14 +35 +35 очень
жарко
1011.4 1009.7
06 21.01 ЮВ 8 н/о н/о +37.9 +6.8 15 +35 +35 очень
жарко
1010.4 1008.7
07 21.01 ЮВ 8 н/о н/о +36.7 +5.9 15 +34 +34 очень
жарко
1009.8 1008.1
08 21.01 ЮВ 7 н/о н/о +37.0 +7.0 16 +35 +35 очень
жарко
1009.7 1008.0
09 21.01 ЮВ 8 н/о н/о +36.0 +7.1 17 +34 +34 очень
жарко
1010.0 1008.3
11 21.01 Ю 5 н/о н/о +27.9 +17.1 52 +32 +32 душно 1011.9 1010.2
10 21.01 В 7 н/о н/о +30.3 +14.8 39 +32 +32 жарко 1010.4 1008.7
12 21.01 ЮВ 4 н/о н/о +27.6 +17.2 53 +32 +32 очень
душно
1012.2 1010.5
13 21.01 ЮВ 6 н/о н/о +26.4 +18.5 62 +31 +31 душно 1012.4 1010.7
14 21.01 ЮВ 6 н/о н/о +25.5 +19.2 68 +31 +31 очень
душно
1011.9 1010.2
15 21.01 ЮВ 3 н/о н/о +26.0 +15.1 51 +29 +29 душно 1011.5 1009.8
17 21.01 ЮВ 4 н/о н/о +24.7 +17.9 66 +29 +29 душно 1010.5 1008.8
16 21.01 ЮВ 5 н/о н/о +25.3 +18.0 64 +30 +30 душно 1010.9 1009.2
18 21.01 ЮВ 3 н/о н/о +24.5 +17.0 63 +28 +28 душно 1010.3 1008.6
19 21.01 ЮВ 5 н/о н/о +24.8 +17.0 62 +29 +29 душно 1010.1 1008.4
20 21.01 ЮВ 4 н/о н/о +24.4 +17.1 64 +28 +28 душно 1010.4 1008.7
21 21.01 ЮВ 5 н/о н/о +25.3 +17.2 61 +29 +29 душно 1010.6 1008.9
23 21.01 ЮВ 4 н/о н/о +30.8 +17.1 44 +35 +35 очень
душно
1010.8 1009.1
22 21.01 ЮВ 5 н/о н/о +27.3 +17.5 55 +31 +31 душно 1010.7 1009.0
00 22.01 ЮВ 5 н/о н/о +31.9 +18.5 45 +37 +37 очень
душно
1010.8 1009.1
01 22.01 В 4 н/о н/о +35.0 +14.8 30 +36 +36 очень
жарко
1010.7 1009.0
02 22.01 В 5 н/о н/о +37.2 +15.6 28 +39 +39 очень
душно
1010.3 1008.6
03 22.01 В 4 н/о н/о +40.0 +12.8 20 +40 +40 очень
душно
1009.5 1007.8
05 22.01 СЗ 7 н/о н/о +44.1 +5.7 10 +41 +41 опасность
перегрева
1007.9 1006.2
04 22.01 С 4 н/о н/о +42.3 +5.7 11 +40 +40 очень
жарко
1008.7 1007.0
06 22.01 Ю 4 н/о н/о +41.7 +9.8 15 +40 +40 очень
жарко
1007.5 1005.8
07 22.01 ЮВ 6 н/о н/о +39.5 +10.8 18 +38 +38 очень
жарко
1007.0 1005.3
08 22.01 Ю 6 н/о н/о +39.0 +8.6 16 +37 +37 очень
жарко
1007.4 1005.7
09 22.01 Ю 4 н/о н/о +38.9 +9.4 17 +37 +37 очень
жарко
1007.8 1006.1
11 22.01 ЮВ 7 н/о н/о +31.0 +16.2 41 +34 +34 душно 1008.4 1006.7
10 22.01 ЮВ 7 н/о н/о +37.5 +8.3 17 +36 +36 очень
жарко
1007.8 1006.1
12 22.01 З 2 н/о н/о +30.4 +16.8 44 +34 +34 очень
душно
1009.4 1007.7
13 22.01 В 4 н/о н/о +29.0 +17.2 49 +33 +33 очень
душно
1009.8 1008.1
14 22.01 ЮВ 2 н/о н/о +28.3 +17.5 52 +32 +32 душно 1009.8 1008.1
15 22.01 ЮВ 3 н/о н/о +28.3 +18.1 54 +33 +33 очень
душно
1009.6 1007.9
17 22.01 ЮВ 4 н/о н/о +26.4 +18.0 60 +31 +31 душно 1008.5 1006.8
16 22.01 Ю 4 н/о н/о +27.2 +18.5 59 +32 +32 очень
душно
1009.0 1007.3
18 22.01 В 4 н/о н/о +25.5 +15.2 53 +28 +28 жарко 1008.4 1006.7
19 22.01 ЮВ 4 н/о н/о +26.4 +15.4 51 +29 +29 жарко 1008.4 1006.7
20 22.01 ЮВ 3 н/о н/о +26.5 +14.6 48 +29 +29 жарко 1009.1 1007.4
21 22.01 ЮВ 4 н/о н/о +29.1 +14.5 41 +31 +31 жарко 1009.6 1007.9
23 22.01 ЮВ 6 н/о н/о +34.6 +13.4 28 +35 +35 очень
жарко
1009.6 1007.9
22 22.01 ЮВ 7 н/о н/о +32.0 +13.7 33 +33 +33 жарко 1009.7 1008.0
00 23.01 ЮВ 4 н/о н/о +37.2 +12.6 23 +37 +37 очень
жарко
1009.4 1007.7
01 23.01 ЮВ 3 н/о н/о +40.0 +10.3 17 +39 +39 очень
жарко
1009.3 1007.6
02 23.01 В 5 н/о н/о +39.8 +10.2 17 +38 +38 очень
жарко
1008.8 1007.1
03 23.01 ЮВ 4 н/о н/о +42.2 +9.2 14 +40 +40 очень
жарко
1008.0 1006.3
05 23.01 ЮВ 5 н/о н/о +44.4 +5.9 10 +42 +42 опасность
перегрева
1006.3 1004.6
04 23.01 ЮВ 5 н/о н/о +42.9 +7.4 12 +41 +41 опасность
перегрева
1007.1 1005.4
06 23.01 ЮВ 7 н/о н/о +43.8 +5.5 10 +41 +41 опасность
перегрева
1005.7 1004.0
07 23.01 ЮВ 8 н/о н/о +43.1 +6.3 11 +40 +40 очень
жарко
1005.3 1003.6
08 23.01 ЮВ 9 н/о н/о +42.6 +5.9 11 +40 +40 очень
жарко
1005.0 1003.3
09 23.01 ЮВ 6 н/о н/о +39.9 +8.4 15 +38 +38 очень
жарко
1005.2 1003.5
11 23.01 ЮВ 6 н/о н/о +34.8 +13.0 27 +35 +35 очень
жарко
1005.9 1004.2
10 23.01 В 6 н/о н/о +34.5 +15.4 32 +36 +36 душно 1005.6 1003.9
12 23.01 ЮВ 7 н/о н/о +36.4 +8.3 18 +35 +35 очень
жарко
1006.2 1004.5
13 23.01 ЮВ 5 н/о н/о +35.2 +9.6 21 +34 +34 очень
жарко
1006.2 1004.5
14 23.01 ЮВ 4 н/о н/о +33.3 +12.3 28 +34 +34 очень
жарко
1006.4 1004.7

 

Местоположение метеостанции Порт Огаста (Южная Австралия, Австралия): широта -32.52 долгота 137.72 высота над уровнем моря 14 м.

В архиве по умолчанию представлена погода в Порт Огаста за последнюю неделю. Архивные данные за месяц целиком и за предыдущие месяцы, начиная с января 2011 года, Вы можете получить, выбрав интересующий диапазон дат из раскрывающегося списка и нажав кнопку "Ввод!".


*Определитесь, кто Вы:
робот инопланетянин человек

Внимание! Время в таблицах - всемирное. Для получения местного времени необходимо прибавить поправку, которая равна 9.5 ч.

Смотрите также архив погоды в соседних городах и на ближайших метеорологических станциях:

Погода в Уиолле (Южная Австралия, Австралия) (64 км)
Погода в Сноутауне (Южная Австралия, Австралия) (148 км)
Погода в Кадине (Южная Австралия, Австралия) (161 км)
Погода в Мунте (Южная Австралия, Австралия) (166 км)
Погода в Клэре (Южная Австралия, Австралия) (166 км)
Погода в Юнте (Южная Австралия, Австралия) (174 км)
Погода на Аэродроме Вумера (Южная Австралия, Австралия) (175 км)
Погода в Кливе (Южная Австралия, Австралия) (175 км)
Погода в Уудинне (Южная Австралия, Австралия) (220 км)
Погода в Ли-Крике (Южная Австралия, Австралия) (224 км)

Пояснения к столбцам:

Ветер - указаны скорость ветра в м/с - средняя за 10 мин, порывы в срок и между сроками (в фигурных скобках) и направление, откуда дует ветер: С - северный, СВ - северо-восточный, В - восточный, ЮВ - юго-восточный, Ю - южный, ЮЗ - юго-западный, З - западный, СЗ - северо-западный.
Видимость - горизонтальная дальность видимости в метрах или километрах. При видимости от 1 до 10 км при отсутствии осадков обычно наблюдается дымка, при ухудшении видимости до 1 км и менее - туман. В сухую погоду видимость может ухудшаться дымом, пылью или мглою.
Явления - указаны атмосферные явления, наблюдавшиеся в срок или в последний час перед сроком; фигурными скобками обозначены явления, наблюдавшиеся между сроками (за 1-3 часа до срока); квадратными скобками обозначены град или гололедные отложения с указанием их диаметра в мм.
Облачность - указаны через наклонную черту общая и нижняя облачность в баллах и высота нижней границы облаков в метрах; квадратными скобками обозначены формы облаков: Ci - перистые, Cs - перисто-слоистые, Cc - перисто-кучевые, Ac - высококучевые, As - высокослоистые, Sc - слоисто-кучевые, Ns - слоисто-дождевые, Cu - кучевые, Cb - кучево-дождевые. Подробнее классификацию облаков см. в Атласе облаков (PDF).
T - Температура воздуха - температура, измеренная на высоте 2 м над землей.
Td - Температура точки росы - температура, при понижении до которой содержащийся в воздухе водяной пар достигнет насыщения.
f - Относительная влажность воздуха - влажноcть воздуха, измеренная на высоте 2 м над землей.
Te - Эффективная температура - температура, которую ощущает одетый по сезону человек в тени. Характеристика душности погоды. При расчете учитывается влияние влажности воздуха и скорости ветра на теплоощущения человека.
Tes - Эффективная температура на солнце - температура, которую ощущает человек, с поправкой на солнечный нагрев. Характеристика знойности погоды. Зависит от высоты солнца над горизонтом, облачности и скорости ветра. Ночью, в пасмурную погоду, а также при ветре 12 м/с и более поправка равна нулю.
P - Атмосферное давление - приведенное к уровню моря атмосферное давление.
Po - Атмосферное давление - измеренное на уровне метеостанции атмосферное давление.
Tmin - Минимальная температура - минимум температуры воздуха на высоте 2 м над землей.
Tmax - Максимальная температура - максимум температуры воздуха на высоте 2 м над землей.
R - Количество осадков - Количество выпавших осадков за период времени, мм. При наведении курсора мыши на число - период времени, за который выпало указанное количество осадков.
R24 - Количество осадков - Количество выпавших осадков за 24 часа, мм.
S - Снежный покров - Высота снежного покрова, см. При наведении курсора мыши на число - состояние снежного покрова и степень покрытия местности в баллах.